Flag for Australia Weather past 2 weeks in Townsville, Queensland, Australia

Now
57 °F

Fog.


Feels Like: 57 °F
Forecast: 60 / 75 °F
Wind: No wind

Location: Townsville Amo

Current Time: Jul 29, 2014 at 7:46:34 AM

Latest Report: Jul 29, 2014 at 7:00 AM


Visibility: N/A

Pressure: 30.15 "Hg

Humidity: 94%

Dew point: 55 °F

Location of TownsvilleLocation

Historic Weather in Townsville — Graph

°F

Townsville temperature yesterday

Maximum temperature yesterday: 77 °F (at 11:00 AM)
Minimum temperature yesterday: 59 °F (at 4:04 AM)
Average temperature yesterday: 69 °F

Past Weeks' High & Low Weather Summary

 TemperatureHumidityPressure
High81 °F (Jul 17, 12:30 PM)100% (Jul 16, 6:00 AM)30.24 "Hg (Jul 16, 6:00 AM)
Low46 °F (Jul 20, 5:00 AM)12% (Jul 18, 2:30 PM)29.98 "Hg (Jul 17, 2:00 PM)
Average66 °F71%30.09 "Hg
* Reported Jul 14 6:00 AM — Jul 29 6:00 AM, Townsville, Weather by CustomWeather, © 2014

Note: Actual official high and low records may vary slightly from our data, if they occured in-between our weather recording intervals... More about our weather records

Advertising

Townsville weather history for previous 24 hours

 ConditionsComfort  
Time TempWeatherWind HumidityBarometerVisibility
6:00 AM
Jul 29
59 °FClear.No wind94%30.12 "HgN/A
5:30 AM59 °FClear.No wind94%30.12 "HgN/A
5:00 AM59 °FClear.No wind94%30.12 "HgN/A
4:00 AM59 °FClear.6 mph94%30.12 "HgN/A
3:30 AM59 °FClear.2 mph94%30.12 "HgN/A
3:00 AM61 °FClear.6 mph88%30.12 "HgN/A
2:30 AM64 °FClear.6 mph83%30.12 "HgN/A
2:00 AM64 °FClear.6 mph83%30.12 "HgN/A
1:30 AM64 °FClear.7 mph83%30.12 "HgN/A
1:00 AM64 °FClear.7 mph88%30.12 "HgN/A
12:30 AM66 °FClear.7 mph83%30.12 "HgN/A
12:00 AM66 °FPassing clouds.7 mph83%30.12 "HgN/A
11:30 PM
Jul 28
68 °FOvercast.8 mph83%30.12 "HgN/A
11:00 PM68 °FOvercast.8 mph83%30.12 "HgN/A
10:30 PM68 °FPassing clouds.6 mph83%30.12 "HgN/A
10:00 PM66 °FPassing clouds.6 mph88%30.12 "HgN/A
9:30 PM66 °FPassing clouds.5 mph88%30.12 "HgN/A
9:00 PM68 °FClear.7 mph83%30.12 "HgN/A
8:30 PM68 °FClear.6 mph83%30.12 "HgN/A
8:00 PM68 °FClear.6 mph83%30.12 "HgN/A
7:30 PM68 °FPassing clouds.7 mph83%30.12 "HgN/A
7:00 PM70 °FPassing clouds.6 mph78%30.12 "HgN/A
6:30 PM70 °FClear.9 mph78%30.09 "HgN/A
6:00 PM70 °FClear.12 mph78%30.09 "HgN/A
5:30 PM72 °FPassing clouds.12 mph73%30.09 "HgN/A
5:00 PM73 °FPassing clouds.15 mph69%30.09 "HgN/A
4:30 PM73 °FPassing clouds.15 mph69%30.07 "HgN/A
4:00 PM75 °FPassing clouds.16 mph61%30.07 "HgN/A
3:30 PM75 °FPassing clouds.16 mph65%30.07 "HgN/A
3:00 PM75 °FPassing clouds.17 mph65%30.07 "HgN/A
2:30 PM77 °FPassing clouds.18 mph57%30.09 "HgN/A
2:00 PM77 °FPassing clouds.16 mph57%30.09 "HgN/A
1:30 PM77 °FPassing clouds.13 mph57%30.09 "HgN/A
1:00 PM75 °FPassing clouds.15 mph57%30.12 "HgN/A
12:30 PM77 °FPassing clouds.17 mph47%30.12 "HgN/A
12:00 PM77 °FPassing clouds.17 mph51%30.12 "HgN/A
11:30 AM77 °FPassing clouds.15 mph51%30.15 "HgN/A
11:00 AM77 °FPassing clouds.15 mph54%30.15 "HgN/A
10:30 AM75 °FPassing clouds.14 mph61%30.15 "HgN/A
10:00 AM73 °FPassing clouds.10 mph65%30.18 "HgN/A
9:00 AM72 °FPassing clouds.7 mph69%30.18 "HgN/A
8:30 AM70 °FPassing clouds.6 mph78%30.15 "HgN/A
8:00 AM66 °FPassing clouds.6 mph88%30.15 "HgN/A
7:30 AM63 °FPassing clouds.6 mph94%30.15 "HgN/A
7:00 AM61 °FFog.5 mph94%30.15 "HgN/A
Weather by CustomWeather, © 2014

See weather overviewHow to use our weather pages